WetterOnline ( https://www.wetteronline.de )

Wetter aktuell Regen

Aktuelles Wetter: Zwiesel (613m)

6-stündlich | Neueste Meldungen
Ortszeit Temperatur Wetter
Mi, 30.11. 1:00 -0.1° C Nebel
Di, 29.11. 19:00 2.7° C bedeckt
Di, 29.11. 13:00 3.7° C leichter Regen
Di, 29.11. 7:00 1.1° C leichter Regen
Di, 29.11. 1:00 0.7° C fast wolkenlos
Mo, 28.11. 19:00 1.2° C leicht bewölkt
Mo, 28.11. 13:00 1.9° C bedeckt
Mo, 28.11. 7:00 -2.3° C bedeckt
Ortszeit Temperatur Wetter
Mi, 30.11. 3:30 0.2° C wolkig
Mi, 30.11. 3:20 0.2° C wolkig
Mi, 30.11. 3:10 0.3° C bedeckt
Mi, 30.11. 3:00 0.2° C wolkig
Mi, 30.11. 2:50 0.2° C wolkig
Mi, 30.11. 2:40 0.1° C bewölkt
Mi, 30.11. 2:30 0.5° C bedeckt
Mi, 30.11. 2:00 0.5° C bedeckt
Mi, 30.11. 1:30 0.2° C bewölkt
Mi, 30.11. 1:00 -0.1° C Nebel
Mi, 30.11. 0:30 0.6° C Nebel
Ortszeit Relative Feuchte Sichtweite
Mi, 30.11. 1:00 96% 10 km
Di, 29.11. 19:00 90% 65 km
Di, 29.11. 13:00 94% 12 km
Di, 29.11. 7:00 96% 11 km
Di, 29.11. 1:00 95% 18 km
Mo, 28.11. 19:00 95% 22 km
Mo, 28.11. 13:00 89% 40 km
Mo, 28.11. 7:00 96% 40 km
Ortszeit Relative Feuchte Sichtweite
Mi, 30.11. 3:30 94% 25 km
Mi, 30.11. 3:20 94% -
Mi, 30.11. 3:10 94% -
Mi, 30.11. 3:00 95% 30 km
Mi, 30.11. 2:50 95% -
Mi, 30.11. 2:40 95% -
Mi, 30.11. 2:30 93% 40 km
Mi, 30.11. 2:00 92% 50 km
Mi, 30.11. 1:30 95% 50 km
Mi, 30.11. 1:00 96% 10 km
Mi, 30.11. 0:30 94% 50 km
Ortszeit Niederschlagsmenge Niederschlagsart
Mi, 30.11. 1:00 0.0 l/m2 in 6 Std. -
Di, 29.11. 19:00 2 l/m2 in 12 Std. Regen
Di, 29.11. 13:00 1 l/m2 in 6 Std. Regen
Di, 29.11. 7:00 1 l/m2 in 12 Std. Schnee, Regen
Di, 29.11. 1:00 0.0 l/m2 in 6 Std. -
Mo, 28.11. 19:00 0.1 l/m2 in 12 Std. Regen
Mo, 28.11. 13:00 0.0 l/m2 in 6 Std. -
Mo, 28.11. 7:00 0.0 l/m2 in 12 Std. -
Ortszeit Niederschlagsmenge Niederschlagsart
Mi, 30.11. 3:30 0.0 l/m2 in 1 Std. -
Mi, 30.11. 3:20 keine Meldung -
Mi, 30.11. 3:10 keine Meldung -
Mi, 30.11. 3:00 0.0 l/m2 in 1 Std. -
Mi, 30.11. 2:50 keine Meldung -
Mi, 30.11. 2:40 keine Meldung -
Mi, 30.11. 2:30 0.0 l/m2 in 1 Std. -
Mi, 30.11. 2:00 0.0 l/m2 in 1 Std. -
Mi, 30.11. 1:30 0.0 l/m2 in 1 Std. -
Mi, 30.11. 1:00 0.0 l/m2 in 1 Std. -
Mi, 30.11. 0:30 0.0 l/m2 in 1 Std. -
Ortszeit Stärke Spitze Richtung
km/h Bft. km/h Grad Sektor
Mi, 30.11. 1:00 4 1 11 350° N
Di, 29.11. 19:00 6 1 17 40° NO
Di, 29.11. 13:00 2 1 7 250° W
Di, 29.11. 7:00 6 1 9 110° O
Di, 29.11. 1:00 0 0 7 - -
Mo, 28.11. 19:00 4 1 11 120° SO
Mo, 28.11. 13:00 2 1 11 240° SW
Mo, 28.11. 7:00 4 1 7 360° N
Ortszeit Stärke Spitze Richtung
km/h Bft. km/h Grad Sektor
Mi, 30.11. 3:30 4 1 7 20° N
Mi, 30.11. 3:20 4 1 - 20° N
Mi, 30.11. 3:10 4 1 - 20° N
Mi, 30.11. 3:00 4 1 11 30° NO
Mi, 30.11. 2:50 4 1 - 30° NO
Mi, 30.11. 2:40 4 1 - 10° N
Mi, 30.11. 2:30 6 1 11 50° NO
Mi, 30.11. 2:00 9 2 13 30° NO
Mi, 30.11. 1:30 4 1 7 40° NO
Mi, 30.11. 1:00 4 1 11 350° N
Mi, 30.11. 0:30 7 2 11 30° NO
Ortszeit Untergrenze Bedeckung Gattung
total tief tief mittel hoch
Mi, 30.11. 1:00 360 m 7/8 1/8 - - -
Di, 29.11. 19:00 450 m 8/8 8/8 - - -
Di, 29.11. 13:00 60 m 8/8 8/8 - - -
Di, 29.11. 7:00 60 m 1/8 1/8 - - -
Di, 29.11. 1:00 1380 m 1/8 1/8 - - -
Mo, 28.11. 19:00 2400 m 3/8 3/8 - - -
Mo, 28.11. 13:00 2700 m 8/8 8/8 - - -
Mo, 28.11. 7:00 3000 m 8/8 8/8 - - -
Ortszeit Bedeckungsgrad in Achtel und Wolkenuntergrenze
Mi, 30.11. 3:30 1(390m) 8(4200m)
Mi, 30.11. 3:20 1(390m) 8(4200m)
Mi, 30.11. 3:10 8
Mi, 30.11. 3:00 2(390m) 7(4500m)
Mi, 30.11. 2:50 2(390m) 7(4500m)
Mi, 30.11. 2:40 7
Mi, 30.11. 2:30 8(4500m)
Mi, 30.11. 2:00 7(4500m) 8(5100m)
Mi, 30.11. 1:30 5(5100m) 7(5400m)
Mi, 30.11. 1:00 1(360m) 7(5700m) 7(6300m)
Mi, 30.11. 0:30 8(3900m)
Ortszeit Luftdruck NN (hPa) Tendenz (hPa in 3 Std.)
Mi, 30.11. 1:00 1022 + 0,2
Di, 29.11. 19:00 1020 + 0,6
Di, 29.11. 13:00 1018 + 0,1
Di, 29.11. 7:00 1018 + 0,5
Di, 29.11. 1:00 1018 - 0,2
Mo, 28.11. 19:00 1017 + 0,1
Mo, 28.11. 13:00 1017 - 0,2
Mo, 28.11. 7:00 1019 - 0,6
Ortszeit Luftdruck NN (hPa) Tendenz (hPa in 3 Std.)
Mi, 30.11. 3:30 1022 + 0,2
Mi, 30.11. 3:20 1022 keine Meldung
Mi, 30.11. 3:10 1022 keine Meldung
Mi, 30.11. 3:00 1022 + 0,3
Mi, 30.11. 2:50 1022 keine Meldung
Mi, 30.11. 2:40 1022 keine Meldung
Mi, 30.11. 2:30 1022 + 0,2
Mi, 30.11. 2:00 1022 + 0,1
Mi, 30.11. 1:30 1022 - 0,2
Mi, 30.11. 1:00 1022 + 0,2
Mi, 30.11. 0:30 1022 + 0,2
Ortszeit Schneehöhe (cm)
Mi, 30.11. 1:00 0
Di, 29.11. 19:00 0
Di, 29.11. 13:00 0
Di, 29.11. 7:00 0
Di, 29.11. 1:00 0
Mo, 28.11. 19:00 0
Mo, 28.11. 13:00 0
Mo, 28.11. 7:00 0
Ortszeit Schneehöhe (cm)
Mi, 30.11. 3:30 0
Mi, 30.11. 3:20 0
Mi, 30.11. 3:10 0
Mi, 30.11. 3:00 0
Mi, 30.11. 2:50 0
Mi, 30.11. 2:40 0
Mi, 30.11. 2:30 0
Mi, 30.11. 2:00 0
Mi, 30.11. 1:30 0
Mi, 30.11. 1:00 0
Mi, 30.11. 0:30 0
Link zu dieser Seite / Seite empfehlen

Das Wetter in ...